Theta_e
307 306 307 308 307 307 307 307 305 305 307 308 309 308 307 303 300 302 304 301 302 304 303 307 315 322 323 325 324 315 318 319 322 324 323 324 323 326 325 328 325 327 328 328 328
307 307 307 308 307 307 307 306 306 307 307 308 308 308 308 303 305 306 301 305 307 306 311 310 310 322 315 320 327 320 318 318 318 321 323 323 321 321 324 323 325 325 327 327 329
307 307 307 306 307 307 307 307 307 307 308 308 307 307 307 306 302 298 310 310 303 304 308 313 316 315 325 326 325 328 326 318 317 319 321 322 321 321 322 323 323 324 325 323 324
306 306 306 306 306 306 306 306 307 307 307 308 308 307 307 304 298 306 313 303 302 306 316 315 313 313 315 327 327 331 329 327 325 324 324 322 323 323 323 322 322 322 322 322 323
305 305 305 305 306 306 306 305 306 307 309 308 307 307 305 304 303 303 303 305 306 304 309 317 312 312 312 313 320 329 328 329 330 330 328 328 331 329 329 328 325 325 325 324 323
304 304 304 305 305 304 304 305 306 308 309 309 308 307 306 305 305 306 307 308 307 306 303 314 311 310 311 310 316 314 317 323 324 324 323 325 325 324 325 325 326 325 325 324 323
301 300 299 299 300 302 305 306 306 309 310 310 309 307 307 305 307 308 309 308 307 306 303 305 313 313 309 311 310 311 313 313 314 316 320 322 324 325 323 323 323 323 323 323 323
304 302 299 299 300 303 306 306 306 308 308 309 309 308 306 305 308 309 309 308 307 306 305 304 306 306 308 310 312 313 311 315 316 314 315 319 323 323 322 323 323 323 322 322 322
304 302 300 300 301 304 306 307 306 308 307 309 309 307 307 306 308 307 308 307 306 306 305 306 305 305 308 310 311 312 317 314 315 315 316 317 321 320 320 320 321 320 320 320 320
304 301 300 300 303 305 307 306 306 307 309 310 310 307 306 306 307 307 307 306 306 305 305 304 303 305 305 309 314 313 316 317 318 316 316 317 318 318 319 320 320 320 319 319 319
303 302 300 300 304 306 307 307 303 303 304 305 304 305 305 305 307 307 307 306 305 305 305 304 303 305 308 309 311 311 312 314 316 316 317 317 318 318 317 317 318 318 319 319 319
303 303 301 301 304 306 306 305 305 305 304 305 303 304 305 305 307 307 306 305 305 305 304 303 303 305 307 308 309 309 310 310 312 312 313 313 313 313 313 314 316 317 318 317 317
301 302 300 301 305 306 306 306 306 306 303 304 304 305 306 305 307 306 306 305 305 305 304 303 304 305 306 306 307 308 309 310 312 312 312 312 314 315 314 312 313 313 314 315 317
301 303 301 302 305 305 306 307 308 305 303 305 306 306 305 305 306 306 306 305 305 304 304 303 303 304 304 305 306 306 309 310 312 312 313 311 315 314 314 314 313 312 312 313 313
301 302 301 302 304 306 307 307 307 302 299 305 306 306 306 305 305 307 310 309 307 306 306 307 303 304 304 304 306 306 306 307 311 311 311 312 311 313 311 311 310 311 312 312 312
301 303 303 304 305 307 307 307 305 302 300 308 306 307 307 306 306 306 307 310 310 312 312 311 307 304 303 304 305 307 308 307 307 309 311 311 311 312 311 311 311 310 311 311 310
302 305 303 304 305 307 308 301 302 303 306 308 307 307 307 307 306 307 307 307 310 312 315 312 309 307 305 304 304 304 303 307 309 309 309 310 311 312 310 311 311 313 312 311 311
304 306 303 306 308 308 304 300 300 306 307 307 307 307 307 305 306 307 307 309 311 312 313 317 312 306 308 305 304 303 302 306 314 314 310 309 314 312 311 312 311 311 310 310 310
305 308 306 308 309 308 300 302 305 307 308 308 307 308 306 305 306 306 306 309 311 311 314 316 313 311 311 310 307 307 304 305 305 306 306 309 310 311 312 312 312 311 311 311 310
305 306 307 308 308 306 302 307 305 306 307 307 309 308 308 306 306 306 307 309 310 310 309 311 311 310 311 311 310 307 305 304 302 307 311 310 311 312 312 311 313 313 312 311 311
304 304 307 307 307 301 302 304 306 307 308 309 309 309 307 307 307 307 309 309 310 310 310 309 309 311 309 308 305 306 308 307 303 304 310 313 312 310 312 312 311 313 321 321 320
300 306 306 306 302 291 299 304 306 308 308 308 308 307 307 307 307 308 309 309 308 309 311 310 310 312 310 307 308 307 307 309 310 310 306 308 308 308 310 311 312 315 322 331 331
303 302 306 304 298 297 301 305 306 308 307 309 310 308 307 308 310 308 309 308 306 309 310 310 309 311 308 310 309 310 310 309 308 308 311 309 308 309 310 311 313 313 322 333 333
303 303 299 297 297 302 304 305 307 306 309 308 307 307 308 309 307 310 310 308 307 308 310 310 310 310 308 308 309 311 312 311 314 314 310 310 311 311 311 312 313 314 320 334 335
297 301 302 300 299 300 304 305 307 307 308 307 308 308 311 312 309 309 309 309 309 309 308 307 312 310 309 310 311 312 312 312 314 313 317 315 315 314 313 313 313 315 326 334 335
295 299 298 298 299 302 302 305 306 306 306 307 309 308 309 310 308 310 309 310 311 309 308 310 312 310 310 310 312 313 311 312 312 313 314 315 316 314 312 313 321 324 330 335 336
299 298 299 300 299 300 300 304 305 305 306 307 307 309 308 308 308 307 307 307 308 310 310 311 312 308 309 309 311 310 311 313 312 312 313 315 313 312 319 322 322 326 330 334 336
Wind_Speed
19 19 20 21 20 19 19 19 20 20 19 18 19 19 22 24 28 25 8 13 12 17 18 13 9 8 4 4 4 4 2 5 7 8 5 2 2 2 5 1 2 1 1 5 9
19 20 20 22 23 22 22 21 20 20 21 21 20 20 21 24 25 15 14 9 7 11 11 7 5 8 3 6 5 5 5 10 6 8 4 4 3 1 4 3 3 0 3 11 5
21 21 22 22 22 23 24 24 23 22 20 18 18 19 20 19 5 6 12 11 18 12 11 10 6 7 6 4 6 7 10 13 6 7 3 7 8 2 4 7 6 6 5 7 12
21 22 22 23 24 24 24 23 23 23 21 18 15 14 15 7 5 4 8 21 16 11 3 4 5 4 8 12 6 5 12 13 5 5 3 7 9 12 8 9 7 9 8 5 10
23 24 25 26 26 26 24 23 22 22 20 17 13 9 5 4 9 11 16 21 23 19 6 4 9 4 7 6 5 14 10 8 16 10 8 5 16 12 20 16 17 20 18 14 8
23 24 26 27 27 26 22 21 24 23 19 12 7 3 3 3 6 19 23 24 22 15 7 4 6 8 5 6 16 2 8 11 7 7 4 6 14 5 4 11 15 12 18 16 12
27 27 28 29 28 23 19 20 24 20 14 7 4 6 4 11 12 19 18 10 17 14 3 11 15 5 1 3 5 4 6 4 7 5 10 7 22 30 18 15 19 19 18 17 18
25 26 27 29 28 24 20 19 19 11 10 4 5 3 7 12 17 12 7 11 19 18 13 17 13 3 6 5 4 4 5 13 13 8 6 11 29 25 8 17 21 19 15 15 17
25 26 26 28 25 24 21 21 17 7 9 7 5 2 10 15 8 13 10 7 14 5 8 15 4 6 3 4 3 4 16 9 6 9 11 12 31 11 9 10 17 12 11 11 12
26 26 25 26 23 23 21 23 15 1 6 2 1 1 7 8 13 16 12 9 3 4 3 4 4 3 3 6 16 10 6 2 5 5 14 11 30 13 8 9 16 15 14 11 13
26 25 25 23 22 17 21 12 7 5 4 4 9 4 14 13 23 7 13 3 4 5 3 4 4 13 11 10 9 5 3 1 1 2 2 16 21 18 12 13 15 18 18 18 18
25 25 25 20 18 8 13 5 4 6 8 13 10 8 19 12 6 7 2 1 1 4 1 4 9 7 4 6 9 10 2 4 5 9 4 6 12 13 10 12 14 17 17 14 12
27 27 23 17 9 4 6 3 10 7 2 8 6 4 8 4 5 7 3 2 4 3 4 7 7 3 5 5 5 4 5 3 6 9 10 9 16 15 12 11 15 15 15 14 15
28 26 22 17 2 8 3 6 18 4 3 5 5 2 7 10 4 20 6 5 3 6 5 6 7 7 7 5 11 11 4 2 3 3 7 3 10 16 15 20 14 12 15 15 11
30 27 19 10 8 3 4 13 9 4 4 12 4 5 11 2 8 3 2 1 7 6 1 10 6 3 4 6 7 6 11 8 4 4 4 6 4 14 4 13 9 14 18 19 21
34 28 17 3 5 7 10 16 4 5 4 7 5 10 15 7 9 5 6 2 1 4 7 12 9 4 7 8 5 4 5 4 3 3 6 7 8 22 10 18 14 8 13 11 9
36 17 6 5 2 10 15 3 4 4 4 6 9 9 15 5 11 7 11 6 4 4 3 9 10 13 6 4 2 4 5 1 1 3 9 14 9 21 3 7 6 8 10 9 9
28 9 1 4 5 10 4 5 6 2 5 7 7 15 4 7 7 7 6 6 2 6 5 5 4 7 8 10 7 6 8 4 6 5 4 7 12 8 13 15 12 9 11 10 10
20 6 3 5 3 3 5 4 5 3 4 6 11 3 4 5 4 6 5 3 2 4 5 4 1 5 6 2 10 5 5 9 2 3 1 5 7 9 12 19 8 7 8 11 10
11 7 6 5 2 5 4 2 3 3 7 7 4 2 5 8 6 6 4 3 4 7 2 3 5 5 4 3 11 5 4 4 1 4 5 5 6 7 7 9 5 9 10 12 10
6 3 8 4 4 5 3 4 5 4 7 3 3 6 6 5 4 4 6 6 1 5 5 2 0 4 2 4 5 1 1 2 3 4 3 3 5 6 4 5 7 9 9 11 11
6 2 10 3 4 1 1 4 6 3 2 4 4 5 5 3 5 4 5 4 4 2 5 2 1 3 6 6 4 2 3 2 4 6 7 3 6 5 5 4 6 13 15 8 3
3 3 6 4 2 3 5 5 4 4 4 2 4 3 3 3 5 4 6 4 8 2 3 1 1 3 5 3 4 3 3 4 2 1 5 4 7 5 10 15 13 14 9 4 2
2 4 4 4 1 2 4 4 4 6 6 3 5 6 2 4 7 6 9 8 4 3 13 3 4 5 4 2 2 4 8 9 5 4 7 15 12 21 22 13 17 19 9 2 4
3 0 0 4 3 4 3 4 6 7 3 5 4 3 8 7 14 17 10 6 10 10 5 6 6 6 9 11 10 11 13 14 14 12 9 3 3 13 15 16 16 12 8 5 6
2 3 3 4 5 4 4 3 8 6 5 10 6 13 14 13 15 21 17 12 8 4 2 2 3 2 10 11 13 16 15 17 18 18 17 15 14 16 18 12 9 13 11 7 8
3 1 2 4 3 2 3 4 6 13 8 7 15 17 15 16 14 19 19 22 16 11 5 4 2 1 5 5 7 9 18 19 19 15 11 15 7 15 11 11 12 12 8 9 11
Wind_Direction
355 352 347 344 343 341 339 338 339 336 331 331 333 332 328 330 324 316 258 264 282 297 304 291 253 201 187 195 182 137 141 223 220 170 237 231 284 251 291 88 16 90 100 253 308
352 348 347 343 341 339 337 334 329 326 328 331 330 328 328 333 319 284 292 294 349 336 289 258 218 170 192 202 190 173 189 219 190 212 227 242 253 262 287 28 215 344 286 338 11
351 349 346 342 339 335 332 329 324 322 322 321 322 326 328 332 295 223 130 1 345 339 276 243 291 197 203 192 205 192 220 227 215 209 234 273 292 208 344 313 225 269 174 349 319
349 344 341 338 336 332 329 322 318 316 314 314 319 329 337 338 322 99 249 319 348 358 217 219 230 213 182 206 201 226 226 228 238 208 247 252 297 291 264 240 283 272 278 215 226
348 344 341 339 337 333 329 325 323 318 311 311 317 334 5 351 254 320 321 327 330 341 328 210 220 185 192 204 189 231 215 211 242 247 244 265 258 262 280 288 295 296 291 276 279
345 343 341 339 337 333 333 337 337 327 316 309 299 278 190 288 294 319 320 325 335 322 290 215 230 221 279 223 198 159 217 234 242 238 236 250 269 235 235 260 261 272 278 289 278
350 350 347 344 342 339 340 342 347 332 318 302 254 219 252 245 308 321 326 326 351 316 257 249 234 261 301 297 250 270 284 280 226 230 246 218 268 253 247 252 260 261 258 262 264
340 343 345 344 344 341 342 344 357 13 10 19 175 188 251 286 319 309 312 314 337 333 239 255 256 255 195 293 320 207 162 242 236 184 247 160 258 247 225 231 248 245 247 252 258
339 344 347 346 346 341 340 344 344 324 12 50 130 154 275 310 283 309 276 285 314 342 276 270 191 201 163 185 351 249 237 214 247 215 200 191 253 251 222 241 258 266 261 255 257
340 343 346 346 347 344 345 344 341 10 27 37 100 271 273 307 317 305 295 274 222 327 312 193 226 213 171 167 216 222 231 207 204 198 189 205 246 256 271 242 259 259 262 262 264
339 340 341 345 347 350 356 0 15 349 26 268 272 260 281 284 306 286 308 238 188 85 356 266 198 222 228 239 256 42 71 56 322 263 282 222 249 253 250 259 257 264 262 264 272
341 339 336 342 344 354 13 73 97 288 303 307 252 243 262 267 283 305 340 328 237 180 102 339 261 260 247 203 244 271 264 256 266 260 214 275 277 280 264 258 257 257 260 257 259
349 343 335 341 351 359 358 49 340 329 251 294 248 252 269 178 272 278 154 275 233 191 213 198 254 336 266 230 230 203 218 209 226 293 283 301 283 272 262 234 248 253 258 254 249
347 340 336 339 96 340 291 330 334 173 46 280 329 317 355 303 257 326 198 199 266 242 227 215 254 233 224 232 225 242 178 247 324 166 258 21 289 271 271 264 249 251 252 260 245
345 337 329 325 292 264 302 325 330 132 358 315 329 304 324 47 273 336 100 144 243 252 278 237 197 220 240 212 186 244 200 226 222 253 268 258 310 281 241 266 270 252 255 252 252
341 331 319 282 259 301 318 335 111 48 275 335 320 336 344 321 316 286 318 249 137 264 229 250 252 204 217 241 204 204 180 167 163 150 253 207 194 279 251 248 255 260 252 255 253
343 334 257 199 256 321 334 56 40 105 341 322 318 331 327 289 318 316 321 312 249 324 332 285 235 227 202 245 236 161 103 145 90 175 231 181 184 236 260 306 242 278 283 265 258
349 6 89 217 284 319 10 58 72 257 272 310 309 310 279 348 299 316 299 324 7 293 289 284 180 172 191 200 202 184 163 178 177 183 220 199 226 248 234 255 277 281 263 282 275
353 3 38 7 346 350 61 55 196 249 293 311 320 294 293 318 279 333 300 273 18 29 325 331 141 356 19 351 172 198 167 212 22 281 199 212 279 288 283 286 290 289 303 291 291
347 345 13 360 43 23 69 260 229 233 306 318 263 249 284 314 321 341 297 271 352 5 166 294 294 134 195 101 303 180 184 107 330 206 247 254 258 233 318 286 355 324 302 298 282
360 45 13 7 333 46 116 245 287 296 353 267 267 277 266 309 283 280 270 312 15 342 321 288 178 312 335 202 185 153 293 201 174 184 211 304 266 220 248 70 334 304 319 298 295
353 43 1 360 43 57 56 307 291 287 234 285 280 243 252 294 278 272 258 309 359 350 317 322 1 283 264 290 343 338 257 230 205 252 252 130 279 330 112 63 8 348 330 331 35
359 291 5 11 74 322 305 289 270 286 295 305 293 262 322 300 294 266 271 311 318 298 286 335 308 312 323 350 28 86 315 268 228 158 221 224 242 279 328 0 350 337 333 332 138
356 358 332 38 81 82 318 293 284 322 285 245 260 269 294 270 236 274 273 309 307 224 302 257 216 218 221 293 346 298 296 299 273 255 251 245 288 296 303 337 335 322 323 206 154
19 343 258 306 325 325 236 282 279 325 280 298 295 236 300 288 300 271 277 292 273 298 309 183 229 220 243 260 268 259 268 271 262 256 249 327 291 288 304 309 298 291 317 196 163
42 23 358 293 290 274 265 240 283 315 308 299 248 290 292 282 273 285 283 267 254 279 224 165 265 258 280 263 245 251 259 258 251 246 255 257 269 272 278 283 287 294 315 206 186
0 355 124 258 294 342 251 275 308 309 275 252 290 294 295 280 287 280 271 268 251 247 211 194 238 269 269 264 322 288 246 237 243 238 219 234 224 260 283 291 281 284 299 214 189